Location: Table Mountain
(47.2500°N, 120.5778°W)
Time: 04:15:54
(UTC-07:00)

Tiangong 2 - Pass Details

Date: 10 October 2017
Orbit: 388 x 392 km, 42.8° (Epoch: 18 October)

Event Time Altitude Azimuth Distance (km) Brightness Sun altitude
Exits shadow 05:38:20 15° 188° (S) 1,140 3.3 -17.0°
Maximum altitude 05:39:35 19° 158° (SSE) 1,011 3.3 -16.8°
Drops below altitude 10° 05:41:55 10° 111° (ESE) 1,418 4.9 -16.4°
Sets 05:44:23 0° 93° (E) 2,276 6.7 -16.0°
